SL-12 R/B(2)

Last updated on Thu Oct 30 2025 00:02:14 GMT+0000 (Coordinated Universal Time)

1 15772U 85042D 25302.50388373 .00000166 00000+0 95984-4 0 9991 2 15772 71.1100 4.8744 0036573 326.6733 128.7790 14.21931241 95742
UTC large
Height (km)
Speed (km/s)
/
Latitude / Longitude
Inclination (degrees)
Orbital Period (minutes)
Azimuth
Elevation
Range (km)
Doppler Factor

Next 0 passes for location: London (51.5072 / 0.1276)

Sorry there are no passes over London.